When you browse on this site, cookies collect data to enhance your experience and personalize the content and advertising you see.
Visit our Privacy Policy to learn more. By continuing to use the site, you agree to this use of cookies and data.
  • In Spain
  • List of Countries
  • For 7 days
  • Water Temperature
  • Weather Map
  • Weather Widgets
  • user-avatar
    Login

    Hourly Weather Thimphu

    Today, 17 September, Tuesday

    Time Temperature Precipitation Wind Pressure Humidity
    00:00 +11°C° 0 mm 0 mps 526 mmHg 97%
    01:00 +11°C° 0.2 mm 0 mps 525 mmHg 97%
    02:00 +10°C° 0.2 mm 0 mps 525 mmHg 97%
    03:00 +10°C° 0.2 mm 0 mps 524 mmHg 96%
    04:00 +10°C° 0.3 mm 0 mps 525 mmHg 97%
    05:00 +10°C° 0.3 mm 0 mps 525 mmHg 97%
    06:00 +10°C° 0.3 mm 0 mps 525 mmHg 98%
    07:00 +10°C° 0.4 mm 0 mps 525 mmHg 98%
    08:00 +11°C° 0.4 mm 0 mps 526 mmHg 97%
    09:00 +11°C° 0.4 mm 0 mps 526 mmHg 97%
    10:00 +12°C° 0.4 mm 1 mps 526 mmHg 97%
    11:00 +12°C° 0.4 mm 1 mps 526 mmHg 96%
    12:00 +13°C° 0.4 mm 1 mps 526 mmHg 96%
    13:00 +13°C° 0.3 mm 1 mps 526 mmHg 95%
    14:00 +13°C° 0.3 mm 1 mps 526 mmHg 95%
    15:00 +13°C° 0.3 mm 1 mps 525 mmHg 94%
    16:00 +13°C° 0.4 mm 1 mps 525 mmHg 96%
    17:00 +11°C° 0.4 mm 0 mps 525 mmHg 97%
    18:00 +11°C° 0.4 mm 0 mps 525 mmHg 98%
    19:00 +11°C° 0.1 mm 0 mps 526 mmHg 97%
    20:00 +11°C° 0.1 mm 0 mps 526 mmHg 96%
    21:00 +11°C° 0.1 mm 0 mps 526 mmHg 95%
    22:00 +10°C° 0.1 mm 0 mps 526 mmHg 95%
    23:00 +10°C° 0.1 mm 0 mps 526 mmHg 95%

    Tomorrow, 18 September, Wednesday

    Time Temperature Precipitation Wind Pressure Humidity
    00:00 +10°C° 0.1 mm 0 mps 526 mmHg 95%
    01:00 +10°C° 0.3 mm 0 mps 526 mmHg 96%
    02:00 +10°C° 0.3 mm 0 mps 526 mmHg 97%
    03:00 +10°C° 0.3 mm 0 mps 526 mmHg 97%
    04:00 +10°C° 0.3 mm 0 mps 526 mmHg 98%
    05:00 +10°C° 0.3 mm 0 mps 526 mmHg 98%
    06:00 +10°C° 0.3 mm 0 mps 527 mmHg 98%
    07:00 +11°C° 0.3 mm 0 mps 527 mmHg 96%
    08:00 +11°C° 0.3 mm 0 mps 528 mmHg 95%
    09:00 +12°C° 0.3 mm 0 mps 528 mmHg 94%
    10:00 +12°C° 0.9 mm 1 mps 528 mmHg 95%
    11:00 +12°C° 0.9 mm 1 mps 528 mmHg 96%
    12:00 +12°C° 0.9 mm 1 mps 527 mmHg 97%
    13:00 +12°C° 1.8 mm 1 mps 527 mmHg 97%
    14:00 +12°C° 1.8 mm 1 mps 526 mmHg 97%
    15:00 +11°C° 1.8 mm 1 mps 526 mmHg 98%
    16:00 +11°C° 0.5 mm 1 mps 525 mmHg 97%
    17:00 +10°C° 0.5 mm 0 mps 525 mmHg 96%
    18:00 +10°C° 0.5 mm 0 mps 525 mmHg 96%
    19:00 +10°C° 0 mm 1 mps 526 mmHg 94%
    20:00 +10°C° 0 mm 1 mps 526 mmHg 92%
    21:00 +10°C° 0 mm 1 mps 526 mmHg 90%
    22:00 +10°C° 0 mm 1 mps 526 mmHg 90%
    23:00 +10°C° 0 mm 1 mps 526 mmHg 89%

    Day after tomorrow, 19 September, Thursday

    Time Temperature Precipitation Wind Pressure Humidity
    00:00 +9°C° 0 mm 1 mps 526 mmHg 88%
    01:00 +9°C° 0 mm 1 mps 526 mmHg 88%
    02:00 +9°C° 0 mm 1 mps 526 mmHg 88%
    03:00 +9°C° 0 mm 1 mps 526 mmHg 89%
    04:00 +9°C° 0 mm 1 mps 526 mmHg 88%
    05:00 +9°C° 0 mm 1 mps 526 mmHg 88%
    06:00 +9°C° 0 mm 1 mps 526 mmHg 88%
    07:00 +11°C° 0 mm 1 mps 527 mmHg 80%
    08:00 +14°C° 0 mm 1 mps 529 mmHg 72%
    09:00 +16°C° 0 mm 1 mps 531 mmHg 65%
    10:00 +18°C° 0.1 mm 1 mps 531 mmHg 61%
    11:00 +18°C° 0.1 mm 2 mps 531 mmHg 57%
    12:00 +19°C° 0.1 mm 2 mps 532 mmHg 54%
    13:00 +19°C° 0.3 mm 2 mps 531 mmHg 58%
    14:00 +18°C° 0.3 mm 2 mps 530 mmHg 62%
    15:00 +18°C° 0.3 mm 2 mps 529 mmHg 67%
    16:00 +16°C° 0.4 mm 1 mps 528 mmHg 76%
    17:00 +14°C° 0.4 mm 1 mps 527 mmHg 84%
    18:00 +11°C° 0.4 mm 0 mps 526 mmHg 93%
    19:00 +12°C° 0.1 mm 1 mps 526 mmHg 93%
    20:00 +11°C° 0.1 mm 1 mps 526 mmHg 92%
    21:00 +11°C° 0.1 mm 1 mps 526 mmHg 91%
    22:00 +10°C° 0 mm 1 mps 526 mmHg 91%
    23:00 +10°C° 0 mm 1 mps 526 mmHg 90%

    20 September, Friday

    Time Temperature Precipitation Wind Pressure Humidity
    00:00 +10°C° 0 mm 1 mps 526 mmHg 89%
    01:00 +10°C° 0 mm 1 mps 526 mmHg 89%
    02:00 +9°C° 0 mm 1 mps 525 mmHg 89%
    03:00 +9°C° 0 mm 1 mps 525 mmHg 89%
    04:00 +9°C° 0 mm 1 mps 525 mmHg 89%
    05:00 +9°C° 0 mm 1 mps 525 mmHg 88%
    06:00 +8°C° 0 mm 1 mps 525 mmHg 88%
    07:00 +11°C° 0 mm 1 mps 527 mmHg 80%
    08:00 +14°C° 0 mm 1 mps 529 mmHg 72%
    09:00 +18°C° 0 mm 1 mps 531 mmHg 64%
    10:00 +18°C° 0.2 mm 2 mps 531 mmHg 62%
    11:00 +18°C° 0.2 mm 2 mps 531 mmHg 60%
    12:00 +19°C° 0.2 mm 2 mps 531 mmHg 58%
    13:00 +18°C° 0.6 mm 2 mps 530 mmHg 65%
    14:00 +18°C° 0.6 mm 2 mps 528 mmHg 71%
    15:00 +17°C° 0.6 mm 2 mps 527 mmHg 77%
    16:00 +15°C° 0.4 mm 1 mps 527 mmHg 83%
    17:00 +14°C° 0.4 mm 1 mps 526 mmHg 89%
    18:00 +13°C° 0.4 mm 1 mps 525 mmHg 95%
    19:00 +12°C° 0.1 mm 1 mps 525 mmHg 95%
    20:00 +11°C° 0.1 mm 0 mps 526 mmHg 95%
    21:00 +10°C° 0.1 mm 0 mps 526 mmHg 95%
    22:00 +10°C° 0.1 mm 0 mps 526 mmHg 95%
    23:00 +10°C° 0.1 mm 0 mps 526 mmHg 94%

    21 September, Saturday

    Time Temperature Precipitation Wind Pressure Humidity
    00:00 +10°C° 0.1 mm 0 mps 526 mmHg 94%
    01:00 +9°C° 0 mm 0 mps 525 mmHg 93%
    02:00 +10°C° 0 mm 1 mps 525 mmHg 92%
    03:00 +10°C° 0 mm 1 mps 524 mmHg 92%
    04:00 +9°C° 0 mm 1 mps 524 mmHg 91%
    05:00 +9°C° 0 mm 1 mps 524 mmHg 91%
    06:00 +9°C° 0 mm 1 mps 525 mmHg 90%
    07:00 +12°C° 0 mm 1 mps 526 mmHg 83%
    08:00 +14°C° 0 mm 1 mps 528 mmHg 76%
    09:00 +16°C° 0 mm 1 mps 529 mmHg 70%
    10:00 +17°C° 0.4 mm 2 mps 529 mmHg 69%
    11:00 +18°C° 0.4 mm 2 mps 529 mmHg 68%
    12:00 +18°C° 0.4 mm 2 mps 529 mmHg 67%
    13:00 +17°C° 0.8 mm 2 mps 528 mmHg 72%
    14:00 +17°C° 0.8 mm 2 mps 527 mmHg 76%
    15:00 +16°C° 0.8 mm 2 mps 526 mmHg 80%
    16:00 +15°C° 0.4 mm 1 mps 526 mmHg 86%
    17:00 +13°C° 0.4 mm 1 mps 525 mmHg 91%
    18:00 +12°C° 0.4 mm 1 mps 525 mmHg 96%
    19:00 +12°C° 0.1 mm 1 mps 525 mmHg 97%
    20:00 +10°C° 0.1 mm 0 mps 525 mmHg 97%
    21:00 +10°C° 0.1 mm 0 mps 525 mmHg 98%
    22:00 +10°C° 0.1 mm 0 mps 525 mmHg 97%
    23:00 +9°C° 0.1 mm 0 mps 525 mmHg 97%

    22 September, Sunday

    Time Temperature Precipitation Wind Pressure Humidity
    00:00 +9°C° 0.1 mm 0 mps 525 mmHg 96%
    01:00 +9°C° 0.1 mm 0 mps 525 mmHg 96%
    02:00 +9°C° 0.1 mm 0 mps 525 mmHg 95%
    03:00 +9°C° 0.1 mm 0 mps 525 mmHg 94%
    04:00 +9°C° 0.1 mm 0 mps 525 mmHg 94%
    05:00 +9°C° 0.1 mm 0 mps 525 mmHg 94%
    06:00 +9°C° 0.1 mm 0 mps 525 mmHg 94%
    07:00 +10°C° 0.1 mm 0 mps 526 mmHg 92%
    08:00 +11°C° 0.1 mm 0 mps 527 mmHg 89%
    09:00 +11°C° 0.1 mm 0 mps 527 mmHg 87%
    10:00 +14°C° 0.3 mm 1 mps 528 mmHg 82%
    11:00 +15°C° 0.3 mm 1 mps 528 mmHg 76%
    12:00 +17°C° 0.3 mm 2 mps 529 mmHg 71%
    13:00 +16°C° 0.6 mm 2 mps 528 mmHg 75%
    14:00 +16°C° 0.6 mm 2 mps 527 mmHg 80%
    15:00 +15°C° 0.6 mm 2 mps 526 mmHg 84%
    16:00 +14°C° 0.5 mm 1 mps 526 mmHg 88%
    17:00 +13°C° 0.5 mm 1 mps 525 mmHg 93%
    18:00 +12°C° 0.5 mm 1 mps 525 mmHg 97%
    19:00 +11°C° 0.2 mm 1 mps 525 mmHg 97%
    20:00 +10°C° 0.2 mm 0 mps 526 mmHg 97%
    21:00 +10°C° 0.2 mm 0 mps 526 mmHg 97%
    22:00 +10°C° 0.1 mm 0 mps 526 mmHg 97%
    23:00 +10°C° 0.1 mm 0 mps 526 mmHg 98%
    Show more